Location: Newark
(44.3248°N, 23.7839°E)
Time: 22:40:41
(UTC+00:00)

PCSat - Pass Details

Date: 19 April 2024
Orbit: 783 x 792 km, 67.1° (Epoch: 20 May)

Event Time Altitude Azimuth Distance (km) Brightness Sun altitude
Rises 18:59:23 0° 232° (SW) 3,268 13.0 -17.5°
Reaches altitude 10° 19:01:55 10° 240° (WSW) 2,345 12.3 -17.8°
Maximum altitude 19:06:59 40° 310° (NW) 1,145 11.0 -18.5°
Drops below altitude 10° 19:12:05 10° 20° (NNE) 2,364 12.3 -19.2°
Sets 19:14:39 0° 28° (NNE) 3,298 12.9 -19.6°
